Regional Weather Roundup
Issued by NWS Cleveland, OH

Home | Current Version | Previous Version | Text Only | Print | Product List | Glossary Off
Versions: 1 2 3 4 5 6 7 8 9 10 11 12 13 14 15 16 17 18 19 20 21 22 23 24 25 26 27 28 29 30 31 32 33 34 35 36 37 38 39 40 41 42 43 44 45 46 47 48 49 50

000
ASUS41 KCLE 051410
RWRCLE
OHIO REGIONAL WEATHER ROUNDUP
NATIONAL WEATHER SERVICE WILMINGTON, OH
1000 AM EDT THU MAY 05 2016

NOTE: "FAIR" INDICATES FEW OR NO CLOUDS BELOW 12,000 FEET WITH NO
SIGNIFICANT WEATHER AND/OR OBSTRUCTIONS TO VISIBILITY.

OHZ001>008-015>018-024>027-034-035-043-044-051500-
   NORTHWEST OHIO

CITY           SKY/WX    TMP DP  RH WIND       PRES   REMARKS
DEFIANCE       CLOUDY    54  44  69 N13       29.85R
FINDLAY        CLOUDY    50  43  77 N13       29.81R
TOLEDO EXPRESS FAIR      54  44  69 N12       29.83R
TOLEDO EXEC    CLOUDY    54  43  66 N13G22    29.84R
LIMA           CLOUDY    46  45  96 N8        29.82R FOG
$$

OHZ009>014-019>023-028>033-038-089-051500-
   NORTHEAST OHIO

CITY           SKY/WX    TMP DP  RH WIND       PRES   REMARKS
CLE-HOPKINS    CLOUDY    50  47  89 N6        29.79R
CLE-LAKEFRONT  CLOUDY    51  47  86 NE8       29.77R
CUY CO. ARPT   CLOUDY    54  50  87 NE12      29.78R FOG
LORAIN-ELYRIA  CLOUDY    48  44  86 NE9       29.79R FOG
ASHTABULA      CLOUDY    50  46  86 NE8       29.78R
AKRON-CANTON   CLOUDY    51  46  83 N7        29.75R
WOOSTER        CLOUDY    50  47  89 N8        29.77R
MANSFIELD      LGT RAIN  47  46  97 NW6       29.78R FOG
YOUNGSTOWN     LGT RAIN  50  47  89 NW5       29.75R FOG
$$

OHZ042-051>053-060>062-070>072-077>081-051500-
  SOUTHWEST OHIO

CITY           SKY/WX    TMP DP  RH WIND       PRES   REMARKS
CINC-COVINGTON CLOUDY    45  36  70 N10       29.82R
CINC-LUNKEN    PTSUNNY   46  38  73 NE6       29.83R
HAMILTON       FAIR      49  37  63 NE5       29.84R
DAYTON         LGT RAIN  43  40  89 N6        29.83R FOG
WRIGHT-PAT AFB LGT RAIN  45  43  93 N7        29.82R FOG
DAYTON GENERAL CLOUDY    47  37  68 N7        29.81R
WILMINGTON     FAIR      48  36  63 VRB7      29.80R
$$

OHZ036-037-039>041-045>050-054>059-063>069-073>076-082>088-051500-
  CENTRAL AND SOUTHEAST OHIO

CITY           SKY/WX    TMP DP  RH WIND       PRES   REMARKS
COLUMBUS       DRIZZLE   43  43 100 NW8       29.79R
OSU AIRPORT    LGT RAIN  44  42  93 NW9       29.79R FOG
BOLTON FIELD   CLOUDY    45  43  93 NW8       29.80R FOG
RICKENBACK AFB CLOUDY    46  40  81 NW10      29.78S
NEWARK         CLOUDY    47  42  83 W5        29.77R
MARION         CLOUDY    46  44  93 N9        29.80R FOG
LANCASTER      CLOUDY    47  43  86 NW9       29.79R FOG
ZANESVILLE     CLOUDY    49  44  83 NW9       29.76R
NEW PHILLY     CLOUDY    51  47  86 NW6       29.76R
$$



USA.gov is the U.S. government's official web portal to all federal, state and local government web resources and services.